RYR90TC LOWW-EDDK

Flight info

Callsign RYR90TC
Flight time 1h 13m
Altitude 36000
Route BUWUT DCT DITIS DCT RAPET T843 VELIS/N0412F320 DCT MASEK T841 ERNEP ERNEP1B
Aircraft B738/M-SDE2E3FGHIRWXY/LB1

Departure

Time 2026-04-26 14:25
Airport Vienna International Airport (LOWW)

Arrival

Time 2026-04-26 15:39
Airport Cologne Bonn Airport (EDDK)
Time Latitude Longitude Altitude Speed Heading
2026-04-26 14:07 48.12089 16.55656 607 ft 0 kts 116°
2026-04-26 14:15 48.12092 16.55646 621 ft 2 kts 114°
2026-04-26 14:15 48.12099 16.55624 619 ft 2 kts 117°
2026-04-26 14:16 48.12107 16.55602 623 ft 2 kts 122°
2026-04-26 14:16 48.12119 16.55585 623 ft 2 kts 191°
2026-04-26 14:16 48.12127 16.55589 620 ft 0 kts 206°
2026-04-26 14:18 48.12123 16.55587 619 ft 2 kts 207°
2026-04-26 14:18 48.12094 16.55564 613 ft 7 kts 201°
2026-04-26 14:19 48.12025 16.55516 616 ft 15 kts 206°
2026-04-26 14:19 48.11922 16.55442 611 ft 10 kts 201°
2026-04-26 14:19 48.11897 16.55436 608 ft 5 kts 186°
2026-04-26 14:19 48.11839 16.55426 621 ft 12 kts 187°
2026-04-26 14:20 48.11803 16.55449 619 ft 6 kts 129°
2026-04-26 14:20 48.11777 16.55528 610 ft 12 kts 116°
2026-04-26 14:20 48.11733 16.55664 616 ft 17 kts 115°
2026-04-26 14:20 48.11674 16.55844 609 ft 21 kts 116°
2026-04-26 14:21 48.11612 16.56040 610 ft 21 kts 115°
2026-04-26 14:21 48.11550 16.56226 615 ft 19 kts 116°
2026-04-26 14:21 48.11488 16.56416 608 ft 22 kts 116°
2026-04-26 14:21 48.11418 16.56630 615 ft 24 kts 116°
2026-04-26 14:22 48.11342 16.56866 617 ft 26 kts 115°
2026-04-26 14:22 48.11262 16.57110 612 ft 24 kts 116°
2026-04-26 14:22 48.11190 16.57330 615 ft 23 kts 116°
2026-04-26 14:22 48.11124 16.57535 612 ft 16 kts 116°
2026-04-26 14:23 48.11076 16.57644 608 ft 10 kts 150°
2026-04-26 14:23 48.11017 16.57628 615 ft 7 kts 206°
2026-04-26 14:23 48.10970 16.57593 613 ft 8 kts 206°
2026-04-26 14:23 48.10917 16.57518 612 ft 12 kts 279°
2026-04-26 14:24 48.10982 16.57329 617 ft 42 kts 296°
2026-04-26 14:24 48.11224 16.56583 612 ft 115 kts 296°
2026-04-26 14:24 48.11516 16.55696 635 ft 155 kts 299°
2026-04-26 14:25 48.11638 16.55311 702 ft 161 kts 301°
2026-04-26 14:25 48.11708 16.55097 770 ft 163 kts 301°
2026-04-26 14:25 48.12204 16.53596 1681 ft 156 kts 299°
2026-04-26 14:25 48.12415 16.52015 2430 ft 170 kts 265°
2026-04-26 14:26 48.12084 16.50174 2895 ft 199 kts 259°
2026-04-26 14:26 48.11686 16.48029 3186 ft 227 kts 262°
2026-04-26 14:26 48.11689 16.45641 3704 ft 231 kts 284°
2026-04-26 14:26 48.11979 16.43172 4280 ft 248 kts 283°
2026-04-26 14:27 48.12260 16.40604 5238 ft 249 kts 282°
2026-04-26 14:27 48.12536 16.38041 6316 ft 246 kts 282°
2026-04-26 14:27 48.12801 16.35551 7344 ft 244 kts 282°
2026-04-26 14:27 48.13069 16.33031 8102 ft 252 kts 282°
2026-04-26 14:28 48.13346 16.30406 8878 ft 258 kts 282°
2026-04-26 14:28 48.13625 16.27734 9697 ft 263 kts 282°
2026-04-26 14:28 48.13912 16.24989 10384 ft 274 kts 282°
2026-04-26 14:28 48.14438 16.22138 10568 ft 296 kts 300°
2026-04-26 14:29 48.15765 16.19721 10981 ft 308 kts 322°
2026-04-26 14:29 48.17639 16.18095 11710 ft 313 kts 333°
2026-04-26 14:29 48.19619 16.16684 12511 ft 317 kts 333°
2026-04-26 14:29 48.21626 16.15246 13303 ft 321 kts 333°
2026-04-26 14:30 48.23651 16.13771 14126 ft 325 kts 333°
2026-04-26 14:30 48.25691 16.12270 14867 ft 329 kts 333°
2026-04-26 14:30 48.27754 16.10743 15654 ft 332 kts 333°
2026-04-26 14:30 48.29832 16.09199 16430 ft 336 kts 333°
2026-04-26 14:31 48.31916 16.07649 17192 ft 339 kts 333°
2026-04-26 14:31 48.34041 16.06068 17939 ft 344 kts 333°
2026-04-26 14:31 48.36198 16.04462 18669 ft 348 kts 333°
2026-04-26 14:31 48.38377 16.02837 19328 ft 351 kts 333°
2026-04-26 14:32 48.40581 16.01193 19989 ft 354 kts 332°
2026-04-26 14:32 48.42799 15.99536 20634 ft 358 kts 332°
2026-04-26 14:32 48.45040 15.97860 21282 ft 361 kts 332°
2026-04-26 14:32 48.47298 15.96171 21904 ft 364 kts 332°
2026-04-26 14:33 48.49582 15.94460 22498 ft 368 kts 332°
2026-04-26 14:33 48.51887 15.92732 23097 ft 372 kts 332°
2026-04-26 14:33 48.54218 15.90982 23691 ft 376 kts 332°
2026-04-26 14:33 48.56482 15.88994 24169 ft 377 kts 321°
2026-04-26 14:34 48.58316 15.86163 24651 ft 379 kts 307°
2026-04-26 14:34 48.59832 15.82898 25159 ft 381 kts 304°
2026-04-26 14:34 48.61304 15.79537 25633 ft 384 kts 303°
2026-04-26 14:34 48.62781 15.76148 26089 ft 388 kts 303°
2026-04-26 14:35 48.64286 15.72730 26553 ft 391 kts 303°
2026-04-26 14:35 48.65787 15.69360 27016 ft 393 kts 303°
2026-04-26 14:35 48.67330 15.65921 27477 ft 396 kts 303°
2026-04-26 14:35 48.68881 15.62468 27907 ft 399 kts 303°
2026-04-26 14:36 48.70430 15.58967 28335 ft 401 kts 301°
2026-04-26 14:36 48.71848 15.55317 28749 ft 404 kts 298°
2026-04-26 14:36 48.73197 15.51567 29161 ft 406 kts 298°
2026-04-26 14:36 48.74535 15.47786 29570 ft 408 kts 298°
2026-04-26 14:37 48.75886 15.44001 30126 ft 407 kts 298°
2026-04-26 14:37 48.77245 15.40240 30705 ft 404 kts 298°
2026-04-26 14:37 48.78596 15.36527 31185 ft 402 kts 298°
2026-04-26 14:37 48.79951 15.32809 31603 ft 402 kts 298°
2026-04-26 14:38 48.81382 15.29153 32002 ft 403 kts 302°
2026-04-26 14:38 48.82981 15.25727 32429 ft 403 kts 305°
2026-04-26 14:38 48.84665 15.22324 32892 ft 402 kts 305°
2026-04-26 14:38 48.86334 15.18925 33330 ft 401 kts 304°
2026-04-26 14:39 48.87970 15.15506 33720 ft 401 kts 304°
2026-04-26 14:39 48.89596 15.12058 34118 ft 400 kts 303°
2026-04-26 14:39 48.91224 15.08629 34498 ft 400 kts 304°
2026-04-26 14:39 48.92876 15.05233 34834 ft 400 kts 304°
2026-04-26 14:40 48.94538 15.01846 35139 ft 400 kts 304°
2026-04-26 14:40 48.96205 14.98452 35468 ft 400 kts 304°
2026-04-26 14:40 48.97867 14.95060 35793 ft 400 kts 304°
2026-04-26 14:40 48.99525 14.91666 36099 ft 399 kts 304°
2026-04-26 14:41 49.01189 14.88250 36251 ft 403 kts 304°
2026-04-26 14:41 49.04540 14.81346 36242 ft 405 kts 304°
2026-04-26 14:42 49.07849 14.74512 36247 ft 397 kts 304°
2026-04-26 14:42 49.11105 14.67764 36265 ft 398 kts 304°
2026-04-26 14:43 49.14384 14.60950 36264 ft 399 kts 304°
2026-04-26 14:43 49.17668 14.54109 36268 ft 399 kts 304°
2026-04-26 14:44 49.20961 14.47231 36266 ft 400 kts 304°
2026-04-26 14:44 49.24250 14.40346 36251 ft 401 kts 304°
2026-04-26 14:45 49.27536 14.33447 36270 ft 401 kts 304°
2026-04-26 14:45 49.30800 14.26579 36249 ft 401 kts 304°
2026-04-26 14:46 49.34076 14.19667 36244 ft 400 kts 303°
2026-04-26 14:46 49.37347 14.12748 36244 ft 400 kts 303°
2026-04-26 14:47 49.40606 14.05835 36246 ft 399 kts 303°
2026-04-26 14:47 49.43863 13.98910 36252 ft 399 kts 303°
2026-04-26 14:48 49.47082 13.92048 36244 ft 398 kts 303°
2026-04-26 14:48 49.50311 13.85146 36252 ft 397 kts 303°
2026-04-26 14:49 49.53540 13.78226 36249 ft 397 kts 303°
2026-04-26 14:49 49.56738 13.71355 36253 ft 397 kts 303°
2026-04-26 14:50 49.59947 13.64441 36254 ft 397 kts 303°
2026-04-26 14:50 49.63155 13.57514 36263 ft 397 kts 303°
2026-04-26 14:51 49.66362 13.50568 36261 ft 397 kts 303°
2026-04-26 14:51 49.69561 13.43623 36267 ft 397 kts 303°
2026-04-26 14:52 49.72761 13.36657 36263 ft 397 kts 303°
2026-04-26 14:52 49.75953 13.29692 36265 ft 397 kts 303°
2026-04-26 14:53 49.79141 13.22716 36267 ft 397 kts 302°
2026-04-26 14:53 49.82332 13.15714 36260 ft 397 kts 302°
2026-04-26 14:54 49.85497 13.08751 36255 ft 398 kts 302°
2026-04-26 14:54 49.88677 13.01738 36256 ft 398 kts 302°
2026-04-26 14:55 49.91856 12.94707 36247 ft 398 kts 302°
2026-04-26 14:55 49.95034 12.87660 36242 ft 398 kts 302°
2026-04-26 14:56 49.98202 12.80618 36239 ft 398 kts 302°
2026-04-26 14:56 50.01364 12.73569 36242 ft 398 kts 302°
2026-04-26 14:57 50.04504 12.66550 36242 ft 397 kts 302°
2026-04-26 14:57 50.07657 12.59484 36245 ft 397 kts 302°
2026-04-26 14:58 50.10811 12.52395 36246 ft 398 kts 302°
2026-04-26 14:58 50.13957 12.45307 36248 ft 398 kts 302°
2026-04-26 14:59 50.17105 12.38197 36252 ft 398 kts 302°
2026-04-26 14:59 50.19579 12.30556 36259 ft 393 kts 285°
2026-04-26 15:00 50.20911 12.22280 36260 ft 393 kts 282°
2026-04-26 15:00 50.22180 12.14031 36269 ft 394 kts 283°
2026-04-26 15:01 50.23489 12.05713 36262 ft 395 kts 283°
2026-04-26 15:01 50.24805 11.97372 36269 ft 395 kts 283°
2026-04-26 15:02 50.26103 11.89018 36265 ft 396 kts 283°
2026-04-26 15:02 50.27392 11.80643 36270 ft 397 kts 283°
2026-04-26 15:03 50.28679 11.72245 36273 ft 398 kts 283°
2026-04-26 15:03 50.29968 11.63808 36260 ft 398 kts 283°
2026-04-26 15:04 50.31237 11.55435 36267 ft 398 kts 283°
2026-04-26 15:04 50.32504 11.46991 36272 ft 399 kts 282°
2026-04-26 15:05 50.33766 11.38541 36267 ft 399 kts 282°
2026-04-26 15:05 50.35025 11.30077 36268 ft 399 kts 282°
2026-04-26 15:06 50.36278 11.21600 36265 ft 399 kts 282°
2026-04-26 15:06 50.37510 11.13107 36266 ft 399 kts 282°
2026-04-26 15:07 50.39343 11.00360 36262 ft 400 kts 282°
2026-04-26 15:07 50.40560 10.91854 36262 ft 400 kts 282°
2026-04-26 15:08 50.41761 10.83406 36259 ft 400 kts 282°
2026-04-26 15:08 50.42967 10.74892 36259 ft 400 kts 282°
2026-04-26 15:09 50.44179 10.66367 36253 ft 400 kts 282°
2026-04-26 15:09 50.45417 10.57841 36259 ft 400 kts 282°
2026-04-26 15:10 50.46438 10.50741 36253 ft 401 kts 282°
2026-04-26 15:10 50.47535 10.45157 36245 ft 401 kts 293°
2026-04-26 15:10 50.48711 10.41188 36259 ft 401 kts 294°
2026-04-26 15:11 50.51132 10.33293 36264 ft 401 kts 295°
2026-04-26 15:11 50.53529 10.25410 35973 ft 406 kts 294°
2026-04-26 15:12 50.54734 10.21402 35635 ft 402 kts 294°
2026-04-26 15:12 50.55919 10.17444 35195 ft 399 kts 294°
2026-04-26 15:12 50.57093 10.13504 34796 ft 396 kts 294°
2026-04-26 15:12 50.58256 10.09596 34387 ft 393 kts 294°
2026-04-26 15:13 50.59408 10.05715 33950 ft 390 kts 294°
2026-04-26 15:13 50.60551 10.01859 33501 ft 388 kts 294°
2026-04-26 15:13 50.61686 9.98022 33094 ft 384 kts 294°
2026-04-26 15:13 50.62809 9.94222 32703 ft 382 kts 294°
2026-04-26 15:14 50.63922 9.90454 32270 ft 379 kts 294°
2026-04-26 15:14 50.65030 9.86690 31914 ft 376 kts 294°
2026-04-26 15:14 50.66114 9.83002 31520 ft 374 kts 294°
2026-04-26 15:14 50.66853 9.80490 31263 ft 372 kts 294°
2026-04-26 15:15 50.68287 9.75601 30764 ft 370 kts 294°
2026-04-26 15:15 50.69361 9.71932 30378 ft 368 kts 293°
2026-04-26 15:15 50.70431 9.68271 29949 ft 366 kts 293°
2026-04-26 15:15 50.71493 9.64636 29532 ft 364 kts 293°
2026-04-26 15:16 50.72206 9.62191 29273 ft 361 kts 293°
2026-04-26 15:16 50.73259 9.58599 28848 ft 359 kts 294°
2026-04-26 15:16 50.74344 9.55122 28468 ft 356 kts 295°
2026-04-26 15:16 50.75462 9.51648 28080 ft 353 kts 296°
2026-04-26 15:17 50.76576 9.48204 27697 ft 351 kts 296°
2026-04-26 15:17 50.77326 9.45882 27424 ft 350 kts 296°
2026-04-26 15:17 50.78776 9.41366 26924 ft 346 kts 296°
2026-04-26 15:17 50.79858 9.37978 26555 ft 344 kts 296°
2026-04-26 15:18 50.80929 9.34610 26187 ft 342 kts 296°
2026-04-26 15:18 50.81996 9.31245 25825 ft 341 kts 296°
2026-04-26 15:18 50.83055 9.27900 25444 ft 340 kts 296°
2026-04-26 15:18 50.84110 9.24560 25078 ft 338 kts 296°
2026-04-26 15:19 50.85160 9.21234 24707 ft 337 kts 296°
2026-04-26 15:19 50.86207 9.17914 24342 ft 336 kts 296°
2026-04-26 15:19 50.87247 9.14609 23964 ft 335 kts 296°
2026-04-26 15:19 50.88285 9.11306 23546 ft 334 kts 296°
2026-04-26 15:20 50.89322 9.08006 23138 ft 333 kts 296°
2026-04-26 15:20 50.90347 9.04734 22737 ft 330 kts 296°
2026-04-26 15:20 50.91363 9.01490 22378 ft 328 kts 296°
2026-04-26 15:20 50.92375 8.98256 22005 ft 326 kts 295°
2026-04-26 15:21 50.93363 8.95091 21643 ft 323 kts 295°
2026-04-26 15:21 50.94358 8.91903 21284 ft 321 kts 296°
2026-04-26 15:21 50.95368 8.88750 20937 ft 319 kts 296°
2026-04-26 15:21 50.96380 8.85631 20588 ft 317 kts 296°
2026-04-26 15:22 50.97386 8.82523 20240 ft 316 kts 296°
2026-04-26 15:22 50.98384 8.79434 19895 ft 314 kts 296°
2026-04-26 15:22 50.99376 8.76352 19553 ft 313 kts 296°
2026-04-26 15:22 51.00361 8.73284 19208 ft 311 kts 296°
2026-04-26 15:23 51.01148 8.70107 18848 ft 310 kts 282°
2026-04-26 15:23 51.01397 8.66728 18520 ft 308 kts 269°
2026-04-26 15:23 51.01146 8.63354 18140 ft 307 kts 261°
2026-04-26 15:23 51.00765 8.60008 17764 ft 306 kts 261°
2026-04-26 15:24 51.00372 8.56702 17405 ft 304 kts 261°
2026-04-26 15:24 50.99985 8.53412 17058 ft 302 kts 261°
2026-04-26 15:24 50.99606 8.50142 16736 ft 300 kts 261°
2026-04-26 15:24 50.99235 8.46889 16393 ft 299 kts 261°
2026-04-26 15:25 50.98873 8.43696 16068 ft 297 kts 261°
2026-04-26 15:25 50.98627 8.41514 15855 ft 296 kts 262°
2026-04-26 15:25 50.98149 8.37266 15418 ft 294 kts 261°
2026-04-26 15:25 50.97787 8.34065 15085 ft 294 kts 262°
2026-04-26 15:26 50.97426 8.30882 14763 ft 292 kts 262°
2026-04-26 15:26 50.96986 8.27736 14421 ft 294 kts 251°
2026-04-26 15:26 50.96116 8.24800 14116 ft 294 kts 245°
2026-04-26 15:26 50.95150 8.21951 13765 ft 294 kts 244°
2026-04-26 15:27 50.94164 8.19110 13409 ft 293 kts 243°
2026-04-26 15:27 50.93176 8.16280 13061 ft 292 kts 243°
2026-04-26 15:27 50.92193 8.13476 12731 ft 290 kts 243°
2026-04-26 15:27 50.91228 8.10732 12424 ft 288 kts 243°
2026-04-26 15:28 50.90240 8.07931 12094 ft 287 kts 243°
2026-04-26 15:28 50.89279 8.05212 11770 ft 286 kts 243°
2026-04-26 15:28 50.88305 8.02465 11466 ft 285 kts 243°
2026-04-26 15:28 50.87332 7.99726 11132 ft 284 kts 243°
2026-04-26 15:29 50.86362 7.97004 10819 ft 283 kts 243°
2026-04-26 15:29 50.85396 7.94302 10529 ft 282 kts 243°
2026-04-26 15:29 50.83512 7.89058 10230 ft 267 kts 243°
2026-04-26 15:30 50.81669 7.83956 9618 ft 266 kts 243°
2026-04-26 15:30 50.80757 7.81421 9362 ft 264 kts 243°
2026-04-26 15:30 50.79845 7.78887 8993 ft 268 kts 244°
2026-04-26 15:31 50.79112 7.76173 8345 ft 278 kts 252°
2026-04-26 15:31 50.77809 7.70200 7181 ft 291 kts 253°
2026-04-26 15:31 50.77171 7.67199 6830 ft 283 kts 253°
2026-04-26 15:32 50.76153 7.62381 6306 ft 269 kts 253°
2026-04-26 15:32 50.75394 7.58757 5998 ft 256 kts 253°
2026-04-26 15:32 50.74842 7.56122 5777 ft 252 kts 253°
2026-04-26 15:33 50.74284 7.53441 5318 ft 259 kts 253°
2026-04-26 15:33 50.73728 7.50733 4906 ft 259 kts 253°
2026-04-26 15:33 50.73180 7.48044 4451 ft 256 kts 253°
2026-04-26 15:33 50.72631 7.45389 4054 ft 253 kts 253°
2026-04-26 15:34 50.72158 7.42722 3623 ft 251 kts 264°
2026-04-26 15:34 50.72275 7.40005 3204 ft 247 kts 281°
2026-04-26 15:34 50.72604 7.37376 3012 ft 236 kts 284°
2026-04-26 15:34 50.73305 7.35225 3001 ft 215 kts 310°
2026-04-26 15:35 50.74215 7.33422 2965 ft 205 kts 308°
2026-04-26 15:35 50.75078 7.31701 2979 ft 195 kts 313°
2026-04-26 15:35 50.76050 7.30301 2832 ft 187 kts 321°
2026-04-26 15:35 50.77010 7.28954 2593 ft 183 kts 318°
2026-04-26 15:36 50.77935 7.27587 2327 ft 181 kts 318°
2026-04-26 15:36 50.78824 7.26277 2094 ft 169 kts 318°
2026-04-26 15:36 50.79651 7.25065 1892 ft 157 kts 318°
2026-04-26 15:36 50.80431 7.23937 1716 ft 144 kts 318°
2026-04-26 15:37 50.81163 7.22877 1505 ft 142 kts 318°
2026-04-26 15:37 50.81892 7.21817 1329 ft 143 kts 319°
2026-04-26 15:37 50.82624 7.20756 1130 ft 142 kts 317°
2026-04-26 15:37 50.83349 7.19717 949 ft 139 kts 318°
2026-04-26 15:38 50.84073 7.18698 747 ft 140 kts 315°
2026-04-26 15:38 50.84793 7.17631 573 ft 142 kts 316°
2026-04-26 15:38 50.85520 7.16577 362 ft 141 kts 315°
2026-04-26 15:38 50.86188 7.15602 291 ft 115 kts 317°
2026-04-26 15:39 50.86669 7.14905 271 ft 70 kts 318°
2026-04-26 15:39 50.86862 7.14529 260 ft 37 kts 289°
2026-04-26 15:39 50.86882 7.14379 258 ft 7 kts 279°
2026-04-26 15:39 50.86888 7.14323 257 ft 8 kts 279°
2026-04-26 15:40 50.86891 7.14291 256 ft 3 kts 279°
2026-04-26 15:40 50.86897 7.14237 255 ft 8 kts 279°
2026-04-26 15:40 50.86905 7.14161 254 ft 5 kts 280°
2026-04-26 15:40 50.86912 7.14095 254 ft 7 kts 280°
2026-04-26 15:41 50.86924 7.13989 251 ft 13 kts 279°
2026-04-26 15:41 50.86957 7.13875 246 ft 15 kts 313°
2026-04-26 15:41 50.87045 7.13748 241 ft 19 kts 317°
2026-04-26 15:41 50.87145 7.13602 237 ft 21 kts 317°
2026-04-26 15:42 50.87255 7.13444 235 ft 21 kts 317°
2026-04-26 15:42 50.87361 7.13290 231 ft 21 kts 317°
2026-04-26 15:42 50.87465 7.13139 231 ft 20 kts 317°
2026-04-26 15:42 50.87565 7.12994 231 ft 19 kts 317°
2026-04-26 15:43 50.87663 7.12853 231 ft 19 kts 317°
2026-04-26 15:43 50.87756 7.12719 231 ft 18 kts 317°
2026-04-26 15:43 50.87929 7.12622 231 ft 10 kts 359°
2026-04-26 15:44 50.87995 7.12579 231 ft 11 kts 315°
2026-04-26 15:44 50.88088 7.12348 232 ft 12 kts 306°
2026-04-26 15:44 50.88115 7.12236 232 ft 11 kts 306°
2026-04-26 15:45 50.88081 7.12140 231 ft 5 kts 216°
2026-04-26 15:45 50.88078 7.12137 231 ft 0 kts 216°